Location: Unspecified
(0.0000°N, 0.0000°E)
Time: 07:01:37
(UTC+00:00)

Courier 1B Rocket - Pass Details

Date: 21 December 2018
Orbit: 920 x 1202 km, 28.2° (Epoch: 16 June)

Event Time Altitude Azimuth Distance (km) Brightness Sun altitude
Rises 05:46:16 0° 286° (WNW) 3,562 - -2.7°
Exits shadow 05:47:20 - 291° (WNW) 3,287 7.0 -2.4°
Reaches altitude 10° 05:50:59 10° 317° (NW) 2,599 6.7 -1.6°
Maximum altitude 05:53:04 12° 337° (NNW) 2,477 6.7 -1.1°
Drops below altitude 10° 05:55:09 10° 357° (N) 2,600 7.0 -0.6°
Sets 05:59:53 0° 29° (NNE) 3,566 8.0 0.4°
